CFG122 EGKK-EDDH

Flight info

Callsign CFG122
Flight time 1h 19m
Altitude 39000
Route FRANE M604 PAAVO Q295 SOMVA DCT MAVAS DCT TULIP Y12 SPY N873 ANDIK M105 RIBSO RIBSO3S
Aircraft A20N/M-SDE2E3FGHIRWXY/LB1

Departure

Time 2026-04-23 18:14
Airport London Gatwick Airport (EGKK)

Arrival

Time 2026-04-23 19:33
Airport Hamburg Helmut Schmidt Airport (EDDH)
Time Latitude Longitude Altitude Speed Heading
2026-04-23 17:14 51.15814 -0.17735 205 ft 0 kts 347°
2026-04-23 17:53 51.15812 -0.17734 204 ft 2 kts 347°
2026-04-23 17:54 51.15787 -0.17725 215 ft 3 kts 347°
2026-04-23 17:54 51.15762 -0.17712 212 ft 4 kts 327°
2026-04-23 17:54 51.15742 -0.17652 212 ft 3 kts 258°
2026-04-23 17:55 51.15745 -0.17629 207 ft 0 kts 258°
2026-04-23 17:59 51.15743 -0.17645 210 ft 2 kts 258°
2026-04-23 17:59 51.15739 -0.17671 211 ft 2 kts 258°
2026-04-23 17:59 51.15731 -0.17735 211 ft 12 kts 258°
2026-04-23 18:00 51.15704 -0.17933 216 ft 20 kts 258°
2026-04-23 18:00 51.15687 -0.18053 215 ft 9 kts 256°
2026-04-23 18:00 51.15683 -0.18079 208 ft 0 kts 256°
2026-04-23 18:00 51.15680 -0.18099 212 ft 6 kts 256°
2026-04-23 18:01 51.15662 -0.18234 216 ft 16 kts 257°
2026-04-23 18:01 51.15636 -0.18425 204 ft 19 kts 259°
2026-04-23 18:01 51.15607 -0.18639 206 ft 21 kts 258°
2026-04-23 18:01 51.15550 -0.18826 211 ft 18 kts 180°
2026-04-23 18:02 51.15425 -0.18788 204 ft 19 kts 168°
2026-04-23 18:02 51.15309 -0.18748 212 ft 10 kts 167°
2026-04-23 18:02 51.15281 -0.18738 207 ft 0 kts 167°
2026-04-23 18:03 51.15256 -0.18729 212 ft 11 kts 167°
2026-04-23 18:03 51.15161 -0.18703 212 ft 16 kts 184°
2026-04-23 18:03 51.15117 -0.18838 209 ft 15 kts 258°
2026-04-23 18:04 51.15093 -0.19016 205 ft 18 kts 258°
2026-04-23 18:04 51.15066 -0.19215 205 ft 18 kts 249°
2026-04-23 18:04 51.14978 -0.19279 211 ft 13 kts 212°
2026-04-23 18:04 51.14953 -0.19397 212 ft 13 kts 259°
2026-04-23 18:05 51.14931 -0.19553 208 ft 16 kts 255°
2026-04-23 18:05 51.14895 -0.19795 213 ft 31 kts 258°
2026-04-23 18:05 51.14839 -0.20177 215 ft 35 kts 257°
2026-04-23 18:05 51.14793 -0.20532 207 ft 28 kts 258°
2026-04-23 18:06 51.14734 -0.20730 204 ft 13 kts 204°
2026-04-23 18:06 51.14704 -0.20721 217 ft 3 kts 154°
2026-04-23 18:06 51.14697 -0.20719 214 ft 0 kts 167°
2026-04-23 18:12 51.14640 -0.20698 213 ft 11 kts 167°
2026-04-23 18:12 51.14591 -0.20646 214 ft 5 kts 78°
2026-04-23 18:12 51.14598 -0.20609 216 ft 0 kts 73°
2026-04-23 18:13 51.14599 -0.20608 214 ft 1 kts 73°
2026-04-23 18:13 51.14635 -0.20346 209 ft 61 kts 78°
2026-04-23 18:13 51.14781 -0.19299 209 ft 130 kts 77°
2026-04-23 18:13 51.15007 -0.17718 640 ft 152 kts 75°
2026-04-23 18:14 51.15258 -0.16119 1574 ft 149 kts 76°
2026-04-23 18:14 51.15495 -0.14466 2377 ft 162 kts 78°
2026-04-23 18:14 51.15748 -0.12597 2986 ft 183 kts 79°
2026-04-23 18:14 51.16022 -0.10514 3562 ft 201 kts 79°
2026-04-23 18:15 51.16328 -0.08206 3980 ft 225 kts 79°
2026-04-23 18:15 51.16606 -0.06114 4398 ft 242 kts 78°
2026-04-23 18:15 51.16881 -0.03404 4859 ft 252 kts 86°
2026-04-23 18:15 51.16876 -0.00618 4983 ft 252 kts 92°
2026-04-23 18:16 51.16812 0.02154 5003 ft 252 kts 91°
2026-04-23 18:16 51.16754 0.04941 4997 ft 251 kts 91°
2026-04-23 18:16 51.16817 0.07663 5007 ft 251 kts 76°
2026-04-23 18:17 51.19124 0.11848 6082 ft 262 kts 36°
2026-04-23 18:17 51.20665 0.13435 7020 ft 266 kts 35°
2026-04-23 18:17 51.22225 0.15035 7883 ft 268 kts 36°
2026-04-23 18:17 51.23795 0.16669 8753 ft 271 kts 36°
2026-04-23 18:18 51.25380 0.18344 9637 ft 275 kts 36°
2026-04-23 18:18 51.26981 0.20048 10498 ft 278 kts 36°
2026-04-23 18:18 51.28606 0.21788 10973 ft 296 kts 36°
2026-04-23 18:18 51.30382 0.23699 11226 ft 319 kts 36°
2026-04-23 18:19 51.32264 0.25719 11734 ft 330 kts 36°
2026-04-23 18:19 51.34174 0.27765 12533 ft 332 kts 36°
2026-04-23 18:19 51.36104 0.29833 13297 ft 336 kts 36°
2026-04-23 18:19 51.38052 0.31924 14089 ft 339 kts 36°
2026-04-23 18:20 51.40020 0.34042 14754 ft 344 kts 36°
2026-04-23 18:20 51.42022 0.36200 15371 ft 349 kts 36°
2026-04-23 18:20 51.44046 0.38385 15990 ft 354 kts 36°
2026-04-23 18:20 51.46099 0.40603 16627 ft 359 kts 36°
2026-04-23 18:21 51.48156 0.42827 17216 ft 364 kts 36°
2026-04-23 18:21 51.50296 0.45143 17830 ft 369 kts 36°
2026-04-23 18:21 51.52409 0.47432 18400 ft 374 kts 36°
2026-04-23 18:21 51.54581 0.49788 18921 ft 380 kts 36°
2026-04-23 18:22 51.56784 0.52180 19452 ft 384 kts 36°
2026-04-23 18:22 51.59007 0.54598 19954 ft 388 kts 36°
2026-04-23 18:22 51.61252 0.57041 20457 ft 393 kts 36°
2026-04-23 18:22 51.63525 0.59519 20967 ft 397 kts 36°
2026-04-23 18:23 51.65043 0.61174 21314 ft 400 kts 36°
2026-04-23 18:23 51.70487 0.67124 22474 ft 410 kts 37°
2026-04-23 18:24 51.75222 0.72314 23441 ft 418 kts 37°
2026-04-23 18:24 51.77632 0.74960 23931 ft 422 kts 37°
2026-04-23 18:24 51.80072 0.77642 24350 ft 425 kts 37°
2026-04-23 18:25 51.81975 0.79737 24681 ft 427 kts 37°
2026-04-23 18:25 51.84370 0.82604 25088 ft 428 kts 43°
2026-04-23 18:25 51.86503 0.85873 25481 ft 427 kts 53°
2026-04-23 18:26 51.88146 0.89835 25847 ft 424 kts 68°
2026-04-23 18:26 51.89234 0.94249 26245 ft 422 kts 75°
2026-04-23 18:26 51.90154 0.98770 26654 ft 424 kts 76°
2026-04-23 18:26 51.91120 1.03306 27044 ft 428 kts 74°
2026-04-23 18:27 51.92167 1.07831 27427 ft 431 kts 73°
2026-04-23 18:27 51.93275 1.12361 27794 ft 434 kts 72°
2026-04-23 18:27 51.94419 1.16904 28144 ft 437 kts 72°
2026-04-23 18:27 51.95580 1.21473 28497 ft 439 kts 72°
2026-04-23 18:28 51.96733 1.26005 28837 ft 442 kts 72°
2026-04-23 18:28 51.97906 1.30625 29159 ft 444 kts 72°
2026-04-23 18:28 51.99079 1.35263 29481 ft 446 kts 72°
2026-04-23 18:28 52.00258 1.39939 29789 ft 449 kts 72°
2026-04-23 18:29 52.01440 1.44637 30100 ft 451 kts 72°
2026-04-23 18:29 52.02626 1.49363 30399 ft 453 kts 72°
2026-04-23 18:29 52.03816 1.54113 30672 ft 455 kts 73°
2026-04-23 18:29 52.05008 1.58883 30948 ft 457 kts 73°
2026-04-23 18:30 52.06188 1.63614 31233 ft 458 kts 73°
2026-04-23 18:30 52.06997 1.66863 31415 ft 459 kts 73°
2026-04-23 18:30 52.07569 1.69162 31556 ft 460 kts 73°
2026-04-23 18:31 52.08766 1.73982 31894 ft 460 kts 73°
2026-04-23 18:31 52.09962 1.78806 32258 ft 459 kts 73°
2026-04-23 18:31 52.11149 1.83607 32622 ft 457 kts 73°
2026-04-23 18:31 52.12332 1.88400 32978 ft 456 kts 73°
2026-04-23 18:32 52.13513 1.93200 33305 ft 456 kts 73°
2026-04-23 18:32 52.14670 1.97914 33632 ft 455 kts 73°
2026-04-23 18:32 52.15842 2.02698 33952 ft 454 kts 73°
2026-04-23 18:32 52.17009 2.07472 34259 ft 453 kts 73°
2026-04-23 18:33 52.18065 2.12239 34543 ft 451 kts 75°
2026-04-23 18:33 52.19139 2.17095 34794 ft 451 kts 75°
2026-04-23 18:33 52.20207 2.21903 35036 ft 451 kts 75°
2026-04-23 18:33 52.21270 2.26705 35251 ft 450 kts 75°
2026-04-23 18:34 52.22328 2.31514 35461 ft 450 kts 75°
2026-04-23 18:34 52.23381 2.36318 35679 ft 450 kts 75°
2026-04-23 18:34 52.24431 2.41122 35888 ft 450 kts 75°
2026-04-23 18:34 52.25463 2.45868 36082 ft 450 kts 75°
2026-04-23 18:35 52.26506 2.50678 36278 ft 449 kts 75°
2026-04-23 18:35 52.27545 2.55486 36470 ft 449 kts 75°
2026-04-23 18:35 52.27896 2.57114 36528 ft 449 kts 75°
2026-04-23 18:36 52.29201 2.63181 36755 ft 449 kts 75°
2026-04-23 18:36 52.30231 2.67986 36939 ft 449 kts 75°
2026-04-23 18:36 52.31260 2.72793 37107 ft 449 kts 75°
2026-04-23 18:36 52.32290 2.77620 37276 ft 448 kts 75°
2026-04-23 18:37 52.33314 2.82424 37439 ft 448 kts 75°
2026-04-23 18:37 52.34337 2.87240 37607 ft 448 kts 75°
2026-04-23 18:37 52.35341 2.91978 37766 ft 447 kts 75°
2026-04-23 18:37 52.36359 2.96789 37977 ft 445 kts 75°
2026-04-23 18:38 52.37366 3.01556 38274 ft 441 kts 75°
2026-04-23 18:38 52.38361 3.06284 38567 ft 437 kts 75°
2026-04-23 18:38 52.39346 3.10968 38877 ft 433 kts 75°
2026-04-23 18:38 52.40316 3.15597 39160 ft 428 kts 75°
2026-04-23 18:39 52.41276 3.20192 39317 ft 426 kts 75°
2026-04-23 18:39 52.43184 3.29365 39381 ft 428 kts 75°
2026-04-23 18:40 52.45087 3.38548 39424 ft 430 kts 75°
2026-04-23 18:40 52.47011 3.47871 39424 ft 433 kts 75°
2026-04-23 18:41 52.47818 3.51791 39429 ft 435 kts 75°
2026-04-23 18:41 52.49754 3.61234 39423 ft 438 kts 75°
2026-04-23 18:42 52.51681 3.70679 39426 ft 442 kts 75°
2026-04-23 18:42 52.53632 3.80279 39427 ft 444 kts 75°
2026-04-23 18:43 52.55563 3.89829 39429 ft 443 kts 75°
2026-04-23 18:43 52.57496 3.99443 39419 ft 443 kts 75°
2026-04-23 18:44 52.59421 4.09060 39426 ft 443 kts 75°
2026-04-23 18:44 52.61340 4.18690 39420 ft 443 kts 75°
2026-04-23 18:45 52.63249 4.28325 39415 ft 443 kts 75°
2026-04-23 18:45 52.65150 4.37963 39415 ft 442 kts 75°
2026-04-23 18:46 52.66123 4.42917 39412 ft 442 kts 75°
2026-04-23 18:46 52.68012 4.52571 39409 ft 442 kts 75°
2026-04-23 18:47 52.69892 4.62226 39406 ft 442 kts 75°
2026-04-23 18:47 52.71764 4.71883 39402 ft 442 kts 75°
2026-04-23 18:48 52.73626 4.81547 39399 ft 442 kts 75°
2026-04-23 18:48 52.75471 4.91162 39399 ft 442 kts 75°
2026-04-23 18:49 52.77320 5.00852 39401 ft 442 kts 75°
2026-04-23 18:49 52.79159 5.10541 39403 ft 443 kts 75°
2026-04-23 18:50 52.80686 5.18622 39400 ft 443 kts 75°
2026-04-23 18:50 52.82821 5.29978 39407 ft 443 kts 75°
2026-04-23 18:51 52.84639 5.39705 39404 ft 443 kts 75°
2026-04-23 18:51 52.86397 5.49161 39403 ft 443 kts 75°
2026-04-23 18:52 52.88202 5.58913 39402 ft 444 kts 75°
2026-04-23 18:52 52.90002 5.68698 39402 ft 444 kts 75°
2026-04-23 18:53 52.91793 5.78480 39400 ft 444 kts 75°
2026-04-23 18:53 52.93567 5.88221 39396 ft 444 kts 75°
2026-04-23 18:54 52.95344 5.98033 39399 ft 444 kts 75°
2026-04-23 18:54 52.97114 6.07859 39396 ft 445 kts 75°
2026-04-23 18:55 52.98876 6.17694 39392 ft 444 kts 75°
2026-04-23 18:55 53.00073 6.24400 39388 ft 444 kts 75°
2026-04-23 18:56 53.01527 6.32589 39372 ft 442 kts 75°
2026-04-23 18:56 53.03536 6.43961 39371 ft 441 kts 75°
2026-04-23 18:57 53.05255 6.53752 39373 ft 442 kts 75°
2026-04-23 18:57 53.06955 6.63478 39374 ft 436 kts 76°
2026-04-23 18:58 53.08633 6.73142 39374 ft 440 kts 76°
2026-04-23 18:58 53.10332 6.82970 39370 ft 443 kts 75°
2026-04-23 18:59 53.12020 6.92785 39367 ft 437 kts 75°
2026-04-23 18:59 53.13687 7.02551 39360 ft 441 kts 75°
2026-04-23 19:00 53.15362 7.12417 39355 ft 443 kts 75°
2026-04-23 19:00 53.16639 7.19966 39348 ft 442 kts 75°
2026-04-23 19:01 53.18251 7.29551 39350 ft 443 kts 75°
2026-04-23 19:01 53.19904 7.39430 39346 ft 442 kts 75°
2026-04-23 19:02 53.21363 7.47590 39330 ft 441 kts 67°
2026-04-23 19:02 53.23239 7.53648 38998 ft 439 kts 60°
2026-04-23 19:02 53.24792 7.58050 38315 ft 441 kts 60°
2026-04-23 19:02 53.26336 7.62435 37365 ft 447 kts 60°
2026-04-23 19:03 53.27895 7.66976 36302 ft 455 kts 61°
2026-04-23 19:03 53.29454 7.71614 35047 ft 461 kts 62°
2026-04-23 19:03 53.30991 7.76252 34040 ft 461 kts 62°
2026-04-23 19:03 53.32526 7.80918 33200 ft 455 kts 62°
2026-04-23 19:04 53.34061 7.85595 32481 ft 450 kts 62°
2026-04-23 19:04 53.35548 7.90138 31853 ft 454 kts 62°
2026-04-23 19:04 53.37072 7.94801 31235 ft 457 kts 62°
2026-04-23 19:04 53.38593 7.99463 30619 ft 454 kts 62°
2026-04-23 19:05 53.40087 8.04049 29939 ft 444 kts 61°
2026-04-23 19:05 53.41548 8.08544 29240 ft 433 kts 61°
2026-04-23 19:05 53.42975 8.12940 28560 ft 424 kts 61°
2026-04-23 19:05 53.44375 8.17264 27919 ft 422 kts 61°
2026-04-23 19:06 53.45768 8.21572 27256 ft 416 kts 61°
2026-04-23 19:06 53.47134 8.25804 26625 ft 412 kts 60°
2026-04-23 19:06 53.48499 8.30039 25998 ft 411 kts 60°
2026-04-23 19:06 53.49835 8.34191 25385 ft 408 kts 60°
2026-04-23 19:07 53.51178 8.38371 24805 ft 405 kts 60°
2026-04-23 19:07 53.52508 8.42527 24220 ft 402 kts 60°
2026-04-23 19:07 53.53827 8.46652 23621 ft 402 kts 60°
2026-04-23 19:07 53.55141 8.50764 22927 ft 395 kts 59°
2026-04-23 19:08 53.56428 8.54804 22289 ft 389 kts 59°
2026-04-23 19:08 53.57699 8.58795 21645 ft 384 kts 59°
2026-04-23 19:08 53.58946 8.62722 21001 ft 376 kts 59°
2026-04-23 19:08 53.60166 8.66566 20430 ft 368 kts 59°
2026-04-23 19:09 53.61351 8.70303 19991 ft 356 kts 59°
2026-04-23 19:09 53.62497 8.73928 19565 ft 346 kts 59°
2026-04-23 19:09 53.63599 8.77414 19140 ft 337 kts 59°
2026-04-23 19:09 53.64850 8.80635 18717 ft 323 kts 43°
2026-04-23 19:10 53.66629 8.82757 18267 ft 308 kts 20°
2026-04-23 19:10 53.68688 8.83441 17812 ft 305 kts 357°
2026-04-23 19:10 53.70814 8.83133 17344 ft 309 kts 354°
2026-04-23 19:10 53.72953 8.82740 16893 ft 310 kts 353°
2026-04-23 19:11 53.75091 8.82743 16436 ft 309 kts 10°
2026-04-23 19:11 53.77083 8.84102 15979 ft 311 kts 33°
2026-04-23 19:11 53.78586 8.86734 15550 ft 316 kts 56°
2026-04-23 19:11 53.79351 8.90221 15118 ft 322 kts 77°
2026-04-23 19:12 53.79524 8.92715 14838 ft 323 kts 82°
2026-04-23 19:12 53.79685 8.97735 14278 ft 323 kts 83°
2026-04-23 19:12 53.79794 9.01528 13717 ft 325 kts 83°
2026-04-23 19:12 53.79935 9.05367 13068 ft 329 kts 82°
2026-04-23 19:13 53.80103 9.09254 12432 ft 333 kts 81°
2026-04-23 19:13 53.80286 9.13176 11804 ft 337 kts 81°
2026-04-23 19:13 53.80472 9.17099 11485 ft 330 kts 81°
2026-04-23 19:13 53.80651 9.20908 11328 ft 318 kts 81°
2026-04-23 19:14 53.80821 9.24560 11271 ft 304 kts 81°
2026-04-23 19:14 53.80984 9.28051 11267 ft 298 kts 81°
2026-04-23 19:14 53.81154 9.31576 11267 ft 302 kts 81°
2026-04-23 19:14 53.81386 9.35087 11265 ft 297 kts 74°
2026-04-23 19:15 53.81812 9.38500 11264 ft 297 kts 73°
2026-04-23 19:15 53.82236 9.41923 11261 ft 297 kts 73°
2026-04-23 19:15 53.82656 9.45352 11257 ft 298 kts 73°
2026-04-23 19:15 53.83062 9.48713 11249 ft 291 kts 73°
2026-04-23 19:16 53.83456 9.52004 11150 ft 279 kts 73°
2026-04-23 19:16 53.83832 9.55155 11038 ft 267 kts 73°
2026-04-23 19:16 53.84195 9.58187 10836 ft 260 kts 73°
2026-04-23 19:17 53.84922 9.64199 10083 ft 262 kts 72°
2026-04-23 19:17 53.85288 9.67237 9637 ft 264 kts 72°
2026-04-23 19:17 53.85655 9.70302 9205 ft 266 kts 73°
2026-04-23 19:17 53.86023 9.73391 8769 ft 268 kts 73°
2026-04-23 19:18 53.86267 9.75447 8486 ft 270 kts 73°
2026-04-23 19:18 53.86606 9.78584 8060 ft 274 kts 78°
2026-04-23 19:18 53.86624 9.81804 7850 ft 272 kts 90°
2026-04-23 19:18 53.86386 9.84926 7735 ft 262 kts 91°
2026-04-23 19:19 53.85956 9.90976 7446 ft 261 kts 90°
2026-04-23 19:19 53.85748 9.94023 7375 ft 260 kts 91°
2026-04-23 19:20 53.85323 10.00086 7248 ft 259 kts 91°
2026-04-23 19:20 53.85107 10.03111 7240 ft 259 kts 91°
2026-04-23 19:20 53.84892 10.06096 7238 ft 259 kts 91°
2026-04-23 19:20 53.84675 10.09122 7240 ft 259 kts 91°
2026-04-23 19:21 53.84457 10.12142 7239 ft 259 kts 91°
2026-04-23 19:21 53.84117 10.18172 7238 ft 251 kts 75°
2026-04-23 19:21 53.84710 10.20838 7238 ft 238 kts 47°
2026-04-23 19:22 53.85755 10.22970 7192 ft 234 kts 43°
2026-04-23 19:22 53.86804 10.25070 6965 ft 233 kts 43°
2026-04-23 19:22 53.88876 10.29251 6585 ft 233 kts 43°
2026-04-23 19:23 53.89923 10.31355 6460 ft 233 kts 43°
2026-04-23 19:23 53.90962 10.33462 6229 ft 234 kts 43°
2026-04-23 19:23 53.91887 10.35790 5787 ft 247 kts 63°
2026-04-23 19:24 53.92145 10.41779 5088 ft 257 kts 84°
2026-04-23 19:24 53.92141 10.44752 4984 ft 247 kts 84°
2026-04-23 19:24 53.91804 10.50541 4971 ft 257 kts 112°
2026-04-23 19:25 53.88997 10.54100 4971 ft 264 kts 175°
2026-04-23 19:25 53.85583 10.52822 4976 ft 251 kts 227°
2026-04-23 19:26 53.84227 10.47887 4970 ft 232 kts 264°
2026-04-23 19:26 53.83878 10.45239 4974 ft 230 kts 264°
2026-04-23 19:27 53.83031 10.39974 4740 ft 234 kts 250°
2026-04-23 19:27 53.80025 10.33203 4421 ft 241 kts 236°
2026-04-23 19:28 53.77875 10.28864 4211 ft 237 kts 236°
2026-04-23 19:28 53.75865 10.24810 3845 ft 219 kts 237°
2026-04-23 19:29 53.74905 10.22868 3581 ft 217 kts 237°
2026-04-23 19:29 53.72996 10.19008 3012 ft 215 kts 236°
2026-04-23 19:30 53.71085 10.15143 2441 ft 212 kts 237°
2026-04-23 19:30 53.70160 10.13275 2160 ft 202 kts 237°
2026-04-23 19:30 53.68467 10.09852 1616 ft 174 kts 238°
2026-04-23 19:31 53.67744 10.08389 1396 ft 154 kts 238°
2026-04-23 19:31 53.67076 10.07027 1197 ft 151 kts 239°
2026-04-23 19:31 53.66425 10.05712 974 ft 140 kts 238°
2026-04-23 19:31 53.65831 10.04508 781 ft 128 kts 237°
2026-04-23 19:32 53.65267 10.03359 619 ft 127 kts 238°
2026-04-23 19:32 53.64707 10.02219 428 ft 128 kts 238°
2026-04-23 19:32 53.64132 10.01054 277 ft 128 kts 237°
2026-04-23 19:32 53.63570 9.99909 94 ft 125 kts 236°
2026-04-23 19:33 53.63046 9.98814 45 ft 107 kts 232°
2026-04-23 19:33 53.62661 9.98046 41 ft 70 kts 229°
2026-04-23 19:33 53.62432 9.97870 44 ft 9 kts 105°
2026-04-23 19:34 53.62431 9.97973 46 ft 9 kts 83°
2026-04-23 19:34 53.62450 9.98090 44 ft 12 kts 62°
2026-04-23 19:34 53.62581 9.98332 46 ft 17 kts 51°
2026-04-23 19:35 53.62660 9.98492 46 ft 19 kts 49°
2026-04-23 19:35 53.62749 9.98673 46 ft 21 kts 51°
2026-04-23 19:35 53.62847 9.98872 46 ft 23 kts 50°
2026-04-23 19:35 53.62955 9.99087 46 ft 25 kts 50°
2026-04-23 19:36 53.63049 9.99288 46 ft 20 kts 53°
2026-04-23 19:36 53.63139 9.99490 46 ft 23 kts 54°
2026-04-23 19:36 53.63240 9.99700 48 ft 23 kts 42°
2026-04-23 19:36 53.63274 9.99751 48 ft 0 kts 43°
2026-04-23 19:37 53.63301 9.99795 46 ft 19 kts 48°
2026-04-23 19:38 53.63380 9.99964 48 ft 12 kts 52°
2026-04-23 19:38 53.63384 10.00001 48 ft 0 kts 108°
2026-04-23 19:38 53.63365 10.00038 48 ft 8 kts 138°
2026-04-23 19:38 53.63346 10.00064 48 ft 0 kts 141°
2026-04-23 19:39 53.63337 10.00078 48 ft 0 kts 140°